Date,TemperatureHighF,TemperatureAvgF,TemperatureLowF,DewpointHighF,DewpointAvgF,DewpointLowF,HumidityHigh,HumidityAvg,HumidityLow,PressureMaxIn,PressureMinIn,WindSpeedMaxMPH,WindSpeedAvgMPH,GustSpeedMaxMPH,PrecipitationSumIn
2013-3-1,35,30,23,-100,-100,-100,0,0,100,0.00,40.00,0,-999,0,0.00
2013-3-2,42,25,16,-100,-100,-100,0,0,100,0.00,40.00,0,-999,0,0.00
2013-3-3,37,24,13,-100,-100,-100,0,0,100,0.00,40.00,0,-999,0,0.00
2013-3-4,33,29,25,-100,-100,-100,0,0,100,0.00,40.00,0,-999,0,0.00
2013-3-5,39,32,29,-100,-100,-100,0,0,100,0.00,40.00,0,-999,0,0.00
2013-3-6,39,30,23,-100,-100,-100,0,0,100,0.00,40.00,0,-999,0,0.00
2013-3-7,39,26,14,-100,-100,-100,0,0,100,0.00,40.00,0,-999,0,0.00
2013-3-8,42,30,20,-100,-100,-100,0,0,100,0.00,40.00,0,-999,0,0.00
2013-3-9,39,36,33,-100,-100,-100,0,0,100,0.00,40.00,0,-999,0,0.00
2013-3-10,42,40,35,-100,-100,-100,0,0,100,0.00,40.00,0,-999,0,0.00
2013-3-11,35,34,31,-100,-100,-100,0,0,100,0.00,40.00,0,-999,0,0.00
2013-3-12,35,30,27,-100,-100,-100,0,0,100,0.00,40.00,0,-999,0,0.00
2013-3-13,35,30,23,-100,-100,-100,0,0,100,0.00,40.00,0,-999,0,0.00
2013-3-14,42,32,27,-100,-100,-100,0,0,100,0.00,40.00,0,-999,0,0.00
2013-3-15,44,36,32,-100,-100,-100,0,0,100,0.00,40.00,0,-999,0,0.00
2013-3-16,41,35,32,-100,-100,-100,0,0,100,0.00,40.00,0,-999,0,0.00
2013-3-17,35,32,27,-100,-100,-100,0,0,100,0.00,40.00,0,-999,0,0.00
2013-3-18,39,31,22,-100,-100,-100,0,0,100,0.00,40.00,0,-999,0,0.00
2013-3-19,33,24,16,-100,-100,-100,0,0,100,0.00,40.00,0,-999,0,0.00
2013-3-20,29,22,14,-100,-100,-100,0,0,100,0.00,40.00,0,-999,0,0.00
2013-3-21,33,24,13,-100,-100,-100,0,0,100,0.00,40.00,0,-999,0,0.00
2013-3-22,41,30,22,-100,-100,-100,0,0,100,0.00,40.00,0,-999,0,0.00
2013-3-23,44,36,29,-100,-100,-100,0,0,100,0.00,40.00,0,-999,0,0.00
2013-3-24,35,33,31,-100,-100,-100,0,0,100,0.00,40.00,0,-999,0,0.00
2013-3-25,44,36,31,-100,-100,-100,0,0,100,0.00,40.00,0,-999,0,0.00
2013-3-26,44,36,29,-100,-100,-100,0,0,100,0.00,40.00,0,-999,0,0.00
2013-3-27,48,38,31,-100,-100,-100,0,0,100,0.00,40.00,0,-999,0,0.00
2013-3-28,51,41,31,-100,-100,-100,0,0,100,0.00,40.00,0,-999,0,0.00
2013-3-29,57,45,32,-100,-100,-100,0,0,100,0.00,40.00,0,-999,0,0.00
2013-3-30,55,46,37,-100,-100,-100,0,0,100,0.00,40.00,0,-999,0,0.00
2013-3-31,53,45,37,-100,-100,-100,0,0,100,0.00,40.00,0,-999,0,0.00